This is the latest recevied weather packets stored in our database for station/object W3JGB. If no packets are shown the sender has not sent any weather packets the latest 10 day(s).
| Time | Temp. | Humidity | Pressure | Rain* | Wind** | Luminosity | Snow |
|---|---|---|---|---|---|---|---|
| 1777471381 | 11.67° C | 90% | 1013.1 hPa | 0 mm | - | 42 W/m² | - |
| 1777471077 | 11.67° C | 90% | 1013.1 hPa | 0 mm | - | 44 W/m² | - |
| 1777470774 | 11.67° C | 91% | 1013.5 hPa | 0 mm | - | 40 W/m² | - |
| 1777470470 | 11.67° C | 91% | 1013.1 hPa | 0 mm | - | 45 W/m² | - |
| 1777470167 | 11.67° C | 91% | 1013 hPa | 0 mm | - | 42 W/m² | - |
| 1777469863 | 11.67° C | 90% | 1013.1 hPa | 0 mm | - | 54 W/m² | - |
| 1777469560 | 11.67° C | 91% | 1013.1 hPa | 0 mm | - | 55 W/m² | - |
| 1777469260 | 11.67° C | 91% | 1013.3 hPa | 0 mm | - | 42 W/m² | - |
| 1777468955 | 11.67° C | 91% | 1013.1 hPa | 0 mm | - | 46 W/m² | - |
| 1777468651 | 11.67° C | 91% | 1013 hPa | 0 mm | - | 55 W/m² | - |
| 1777468348 | 11.67° C | 91% | 1013.2 hPa | 0 mm | - | 52 W/m² | - |
| 1777468044 | 11.67° C | 91% | 1013.3 hPa | 0 mm | - | 48 W/m² | - |
| 1777467740 | 11.67° C | 91% | 1013.3 hPa | 0 mm | - | 48 W/m² | - |
| 1777467435 | 11.67° C | 90% | 1013.3 hPa | 0 mm | - | 54 W/m² | - |
| 1777467131 | 11.67° C | 90% | 1013.2 hPa | 0 mm | - | 54 W/m² | - |
| 1777466828 | 11.11° C | 90% | 1013.4 hPa | 0 mm | - | 52 W/m² | - |
| 1777466526 | 11.11° C | 90% | 1013.4 hPa | 0 mm | - | 52 W/m² | - |
| 1777466222 | 11.11° C | 90% | 1013.5 hPa | 0 mm | - | 49 W/m² | - |
| 1777465918 | 11.11° C | 90% | 1013.8 hPa | 0 mm | - | 46 W/m² | - |
| 1777465615 | 11.11° C | 90% | 1013.6 hPa | 0 mm | - | 44 W/m² | - |
| 1777465310 | 11.11° C | 91% | 1013.7 hPa | 0 mm | - | 42 W/m² | - |
| 1777465004 | 11.11° C | 90% | 1014 hPa | 0 mm | - | 34 W/m² | - |
| 1777464699 | 11.11° C | 90% | 1013.7 hPa | 0 mm | - | 34 W/m² | - |
| 1777464396 | 11.11° C | 90% | 1014 hPa | 0 mm | - | 35 W/m² | - |
| 1777464092 | 11.11° C | 89% | 1013.7 hPa | 0 mm | - | 28 W/m² | - |
* Rain latest hour (hover to see other rain measurements)
** Current wind speed in m/s (hover to see current wind gust speed)